SCP
0 0 0 0 0 0 0 0 0 0 0 0 0 0 0 0 0 0 1 1 2 2 2 2 3 3 3 3 4 4 4 5 4 3 2 2 2 2 2 1 1 1 1 1
0 0 0 0 0 0 0 0 0 0 0 0 0 0 0 0 0 0 1 1 1 2 2 3 3 4 4 4 4 4 4 4 3 2 2 2 2 2 2 1 1 1 1 1
0 0 0 0 0 0 0 0 0 0 0 0 0 0 0 0 0 0 0 0 1 2 3 3 3 3 3 3 3 3 3 2 2 1 2 2 2 2 2 1 1 1 1 1
0 0 0 0 0 0 0 0 0 0 0 0 0 0 0 0 0 0 0 0 1 2 3 3 3 3 3 2 2 2 2 2 1 1 1 1 1 1 1 1 1 1 1 1
0 0 0 0 0 0 0 0 0 0 0 0 0 0 0 0 0 0 0 1 1 2 2 2 2 2 2 2 2 2 2 2 2 2 1 1 1 1 1 1 1 1 1 1
0 0 0 0 0 0 0 0 0 0 0 0 0 0 0 0 0 0 0 1 1 1 1 1 1 1 1 2 2 2 1 1 1 2 2 1 1 1 1 1 1 1 1 1
0 0 0 0 0 0 0 0 0 0 0 0 0 0 0 0 0 0 0 1 1 1 1 1 1 1 1 2 2 2 1 1 1 1 2 1 1 1 1 1 1 1 0 0
0 0 0 0 0 0 0 0 0 0 0 0 0 0 0 0 0 0 0 0 0 0 0 0 0 1 1 1 1 1 1 1 0 1 1 1 1 1 1 1 1 1 0 0
0 0 0 0 0 0 0 0 0 0 0 0 0 0 0 0 0 0 0 0 0 0 0 0 0 0 0 1 1 1 1 1 0 0 1 1 1 1 1 1 1 1 1 0
0 0 0 0 0 0 0 0 0 0 0 0 0 0 0 0 0 0 0 0 0 0 0 0 0 0 0 0 1 1 1 1 1 0 0 0 1 1 1 1 1 1 1 1
0 0 0 0 0 0 0 0 0 0 0 0 0 0 0 0 0 0 0 0 0 0 0 0 0 0 0 0 0 0 1 1 1 0 0 0 0 0 1 1 1 1 1 1
0 0 0 0 0 0 0 0 0 0 0 0 0 0 0 0 0 0 0 0 0 0 0 0 0 0 0 0 0 0 0 0 0 0 0 0 0 0 0 0 0 0 1 1
0 0 0 0 0 0 0 0 0 0 0 0 0 0 0 0 0 0 0 0 0 0 0 0 0 0 0 0 0 0 0 0 0 0 0 0 0 0 0 0 0 0 0 0
0 0 0 0 0 0 0 0 0 0 0 0 0 0 0 0 0 0 0 0 0 0 0 0 0 0 0 0 0 0 0 0 0 0 0 0 0 0 0 0 0 0 0 0
0 0 0 0 0 0 0 0 0 0 0 0 0 0 0 0 0 0 0 0 0 0 0 0 0 0 0 0 0 0 0 0 0 0 0 0 0 0 0 0 0 0 0 0
0 0 0 0 0 0 0 0 0 0 0 0 0 0 0 0 0 0 0 0 0 0 0 0 0 0 0 0 0 0 0 0 0 0 0 0 0 0 0 0 0 0 0 0
0 0 0 0 0 0 0 0 0 0 0 0 0 0 0 0 0 0 0 0 0 0 0 0 0 0 0 0 0 0 0 0 0 0 0 0 0 0 0 0 0 0 0 0
0 0 0 0 0 0 0 0 0 0 0 0 0 0 0 0 0 0 0 0 0 0 0 0 0 0 0 0 0 0 0 0 0 0 0 0 0 0 0 0 0 0 0 0
0 0 0 0 0 0 0 0 0 0 0 0 0 0 0 0 0 0 0 0 0 0 0 0 0 0 0 0 0 0 0 0 0 0 0 0 0 0 0 0 0 0 0 0
0 0 0 0 0 0 0 0 0 0 0 0 0 0 0 0 0 0 0 0 0 0 0 0 0 0 0 0 0 0 0 0 0 0 0 0 0 0 0 0 0 0 0 0
0 0 0 0 0 0 0 0 0 0 0 0 0 0 0 0 0 0 0 0 0 0 0 0 0 0 0 0 0 0 0 0 0 0 0 0 0 0 0 0 0 0 0 0
0 0 0 0 0 0 0 0 0 0 0 0 0 0 0 0 0 0 0 0 0 0 0 0 0 0 0 0 0 0 0 0 0 0 0 0 0 0 0 0 0 0 0 0
0 0 0 0 0 0 0 0 0 0 0 0 0 0 0 0 0 0 0 0 0 0 0 0 0 0 0 0 0 0 0 0 0 0 0 0 0 0 0 0 0 0 0 0
0 0 0 0 0 0 0 0 0 0 0 0 0 0 0 0 0 0 0 0 0 0 0 0 0 0 0 0 0 0 0 0 0 0 0 0 0 0 0 0 0 0 0 0
0 0 0 0 0 0 0 0 0 0 0 0 0 0 0 0 0 0 0 0 0 0 0 0 0 0 0 0 0 0 0 0 0 0 0 0 0 0 0 0 0 0 0 0
0 0 0 0 0 0 0 0 0 0 0 0 0 0 0 0 0 0 0 0 0 0 0 0 0 0 0 0 0 0 0 0 0 0 0 0 0 0 0 0 0 0 0 0
Wind_Speed
5 5 8 10 11 10 8 11 11 9 6 9 10 11 10 9 9 9 9 9 9 9 7 7 7 9 8 9 10 10 9 8 7 5 5 4 4 3 3 3 4 3 3 3
5 9 9 8 9 11 10 10 9 5 5 6 8 11 10 10 10 9 8 9 9 8 8 8 7 8 9 9 9 9 9 8 7 5 4 4 4 3 2 2 3 3 3 3
8 6 6 8 9 10 10 9 7 5 3 6 6 9 11 10 9 9 9 8 7 8 9 9 8 7 8 8 9 8 8 8 7 7 5 5 3 3 2 2 2 3 3 3
7 6 6 8 9 8 9 6 6 5 4 4 5 5 7 9 10 10 10 9 7 7 7 8 8 8 8 7 6 7 8 8 7 7 7 7 6 5 4 3 3 3 3 3
4 4 7 9 8 8 6 4 5 5 4 5 6 5 6 8 9 10 9 9 7 7 7 8 8 7 7 7 6 6 7 7 7 7 7 6 5 4 4 4 5 4 3 3
6 5 6 6 5 4 3 3 4 3 2 7 9 7 5 5 8 8 7 7 7 6 7 7 6 6 6 6 6 6 7 6 7 7 6 6 6 6 6 5 5 4 3 3
4 5 3 3 3 3 2 3 2 3 5 7 7 6 4 2 0 3 5 5 4 5 6 6 7 7 7 7 6 6 7 6 6 6 6 6 6 6 6 6 5 4 3 2
2 3 3 2 2 3 6 5 3 3 4 3 4 6 2 2 5 5 4 4 4 4 4 5 5 6 7 7 7 7 7 6 5 5 5 5 5 4 4 4 4 4 3 3
2 3 1 1 1 2 4 5 3 3 3 3 4 2 0 4 4 5 4 4 3 4 4 4 4 5 5 6 6 6 6 6 5 5 5 4 4 4 4 4 4 3 3 3
3 3 3 1 0 1 3 2 1 2 3 3 4 4 2 0 2 3 3 2 2 3 3 3 3 4 4 5 5 5 5 5 5 4 4 4 4 4 4 4 4 4 3 3
3 2 2 1 2 2 2 3 3 3 3 2 2 1 3 2 3 3 3 3 3 3 3 3 3 3 4 5 5 5 5 5 5 5 5 5 4 4 4 3 4 3 3 2
4 2 3 3 1 1 1 2 3 3 3 3 1 0 5 5 4 4 3 3 4 4 4 4 4 4 4 4 4 4 4 4 4 4 5 5 4 4 4 3 3 3 3 2
4 2 1 1 0 1 1 2 3 3 2 2 2 1 4 6 6 5 5 5 4 5 5 4 4 4 4 4 4 4 4 4 4 4 5 5 4 4 4 3 3 3 3 2
3 1 2 3 3 1 2 3 3 2 2 3 3 3 4 5 5 5 5 5 5 5 4 4 4 3 4 4 4 4 4 4 4 4 4 4 3 3 3 3 3 2 2 2
2 2 3 5 5 2 2 4 4 4 3 3 4 3 4 5 3 4 5 5 5 4 4 4 4 3 4 4 4 4 4 4 4 4 4 4 4 4 3 3 2 2 2 2
2 2 3 4 3 2 3 5 5 5 4 5 4 4 4 4 3 4 4 4 4 4 3 3 4 4 3 4 4 4 4 4 4 4 4 4 4 4 3 3 2 2 2 1
2 2 2 3 3 2 3 4 4 4 3 3 4 4 4 4 4 4 4 3 3 2 3 3 3 3 3 3 4 4 3 4 4 4 4 4 3 4 3 3 3 2 1 1
2 2 2 2 2 2 2 1 2 2 2 2 2 3 4 3 3 5 4 3 3 3 3 3 3 4 4 4 4 4 4 4 4 4 4 4 4 3 3 3 2 1 1 1
3 2 2 1 2 3 2 2 2 2 2 3 3 3 4 3 3 5 6 5 4 3 3 3 3 4 4 4 4 5 4 4 5 4 4 4 3 3 3 2 1 1 1 1
1 1 1 2 2 2 2 4 4 1 2 4 4 3 3 4 2 3 5 6 5 5 4 4 4 5 4 4 4 5 4 4 4 4 3 3 3 3 2 2 1 1 1 0
1 1 2 3 2 2 3 5 2 0 3 4 3 3 3 2 1 2 4 5 5 5 5 4 4 4 3 3 4 4 4 4 3 3 3 3 3 2 2 1 1 1 1 1
1 1 2 2 2 3 4 3 1 1 3 4 4 4 3 2 3 3 4 4 4 5 5 4 4 4 4 3 4 5 4 3 3 3 3 2 2 2 1 1 1 1 1 1
2 3 2 2 3 1 2 2 2 3 3 3 3 3 2 2 2 3 3 3 4 4 4 4 4 4 4 4 4 4 2 2 3 3 3 2 2 2 1 1 1 1 1 1
2 2 2 3 3 2 2 2 3 3 3 3 3 2 2 1 2 2 2 3 3 3 3 3 3 3 4 4 4 3 2 2 2 2 2 2 2 2 2 1 1 1 0 0
4 3 3 4 4 4 2 3 4 3 3 3 3 3 2 1 1 2 2 2 2 2 2 3 2 3 3 3 3 3 3 3 2 2 2 2 1 1 2 2 1 1 1 1
2 3 3 4 3 3 3 3 3 3 3 3 2 3 3 2 1 2 2 2 2 2 2 2 2 2 3 3 3 3 3 3 2 2 1 1 1 1 1 1 2 4 3 3
Wind_Direction
197 208 217 215 219 241 238 227 231 230 219 217 231 239 236 227 217 216 214 208 200 201 190 171 165 160 155 155 157 160 160 158 153 151 148 141 142 138 131 131 131 132 128 130
208 224 233 237 233 246 252 245 239 239 229 225 237 244 237 227 220 214 216 215 202 190 177 171 165 161 163 162 162 163 162 160 157 155 153 144 136 136 136 132 134 137 135 135
225 229 233 233 231 236 244 240 237 235 256 249 248 254 235 223 221 216 217 222 206 186 174 170 165 164 161 162 164 165 160 157 152 147 136 128 119 121 129 144 150 149 146 144
238 240 228 231 228 227 237 239 252 237 216 235 209 255 236 209 212 211 205 210 207 192 173 167 167 167 165 159 155 155 155 154 152 151 152 155 160 164 169 162 155 145 142 138
242 239 231 229 225 225 240 250 261 253 244 254 219 233 254 204 206 211 205 196 194 190 175 168 166 162 156 149 153 155 154 154 154 156 158 160 162 158 150 151 149 148 151 149
263 258 235 239 243 227 254 236 251 248 239 240 220 213 264 225 208 201 198 184 181 176 166 161 153 149 147 143 147 150 152 155 157 160 165 166 164 159 154 153 152 153 152 154
261 231 221 219 224 206 213 174 179 196 209 233 205 207 239 310 359 165 169 163 157 149 146 147 147 152 150 147 148 150 148 151 158 163 167 165 163 161 160 156 154 154 156 159
271 233 200 194 220 216 214 209 200 207 211 228 199 213 223 34 31 55 86 100 110 114 121 130 146 150 151 151 150 151 151 152 155 158 159 155 151 152 153 150 148 152 155 157
299 276 230 203 254 235 215 223 266 293 268 226 211 205 358 40 40 43 54 75 95 111 106 124 134 143 148 149 151 152 151 149 152 149 143 143 141 140 140 136 132 135 139 144
296 274 272 256 197 252 258 258 242 228 240 237 211 194 220 79 59 59 57 75 85 98 109 119 126 137 141 140 142 143 145 145 142 136 136 134 131 131 128 125 130 135 138 141
302 270 262 211 199 217 205 218 238 243 258 247 215 165 16 90 95 89 60 57 76 73 77 97 103 108 112 119 126 132 137 133 131 130 127 122 119 117 118 124 129 130 127 130
330 303 250 240 224 220 233 236 227 219 251 253 236 292 17 34 46 64 55 46 69 74 76 77 81 82 88 97 104 112 114 117 125 128 123 120 118 119 123 126 124 124 128 129
342 327 283 269 214 7 270 294 277 264 271 268 239 238 30 27 28 40 49 46 62 66 69 72 76 80 86 90 94 97 101 101 97 104 113 115 117 117 117 117 117 122 127 126
352 327 254 241 267 279 282 307 295 257 244 266 261 271 326 359 14 27 35 45 58 67 73 71 73 74 78 83 86 89 88 86 94 98 109 111 113 115 113 110 111 111 120 129
18 292 273 281 277 262 285 289 281 250 254 250 277 284 313 336 1 26 33 37 48 59 61 67 68 71 73 77 76 79 83 82 86 92 95 101 100 98 97 98 104 105 108 113
1 283 289 279 267 249 301 305 284 267 265 260 273 285 319 336 20 32 32 34 39 42 42 57 70 74 78 85 87 81 80 81 84 89 87 87 93 93 90 88 88 86 82 78
316 303 286 277 301 312 287 283 270 261 274 270 264 282 327 355 20 30 22 21 31 36 36 42 61 77 83 87 92 91 83 85 88 87 84 82 84 90 89 85 81 78 71 66
266 288 265 282 320 235 242 320 298 266 298 322 322 351 4 2 19 29 17 22 30 30 35 40 51 64 76 84 83 83 87 88 91 89 85 79 79 82 82 86 84 71 66 61
233 239 264 253 248 253 277 332 308 270 291 345 330 333 343 351 22 18 20 24 30 34 44 44 48 64 73 83 90 88 89 90 87 82 80 77 77 79 76 74 74 67 70 50
281 251 254 262 249 253 318 339 329 293 282 351 349 338 349 4 15 338 6 21 27 36 49 53 53 60 66 69 85 91 88 86 83 78 70 68 73 79 80 70 44 39 62 35
321 273 252 258 248 271 332 322 335 174 284 343 354 358 11 10 333 348 19 28 33 38 47 52 60 66 67 70 78 83 78 74 71 78 78 66 64 68 68 61 48 48 53 42
225 253 239 254 238 266 346 6 34 314 341 357 5 12 19 21 27 30 31 34 37 39 41 47 59 59 52 58 78 77 67 62 66 74 80 75 66 57 54 58 36 29 58 64
199 217 232 217 230 285 13 18 1 354 343 346 350 359 15 17 22 34 37 37 37 41 35 38 53 56 45 46 68 83 60 59 71 74 71 63 57 55 48 57 41 17 35 77
253 248 245 265 274 312 339 349 352 343 330 333 340 348 19 22 17 31 36 37 37 40 42 37 46 56 45 41 52 63 49 47 72 80 70 64 60 47 38 35 29 18 355 27
286 300 271 264 288 298 301 331 333 337 349 355 358 1 8 21 11 16 22 20 23 35 38 43 49 56 46 42 44 42 41 44 57 67 62 57 50 41 35 28 20 352 302 246
267 262 265 266 287 284 301 332 343 340 337 345 356 352 350 355 353 3 12 16 20 29 41 45 42 46 42 45 42 29 32 39 51 60 50 48 51 38 28 20 9 7 349 349